Flag for U.S.A. Weather past 2 weeks in Port St. Lucie, Florida, U.S.A.

Now
70 °F

Clear.


Feels Like: 70 °F
Forecast: 65 / 84 °F
Wind: 5 mph from Northwest

Location: Witham Field Airport

Current Time: Mar 27, 2015 at 3:54:11 AM

Latest Report: Mar 27, 2015 at 3:15 AM


Visibility: 10 mi

Pressure: 29.93 "Hg

Humidity: 94%

Dew point: 68 °F

Location of Port St. LucieLocation

Historic Weather in Port St. Lucie — Graph

°F

Port St. Lucie temperature yesterday

Maximum temperature yesterday: 86 °F (at 1:50 PM)
Minimum temperature yesterday: 70 °F (at 2:55 AM)
Average temperature yesterday: 72 °F

Past Weeks' High & Low Weather Summary

 TemperatureHumidityPressure
High86 °F (Mar 20, 12:50 PM)100% (Mar 17, 7:50 AM)30.24 "Hg (Mar 17, 7:50 AM)
Low64 °F (Mar 17, 4:55 AM)35% (Mar 20, 6:47 PM)29.92 "Hg (Mar 26, 4:47 PM)
Average72 °F82%30.07 "Hg
* Reported Mar 12 2:15 AM — Mar 27 2:35 AM, Port St. Lucie, Weather by CustomWeather, © 2015

Note: Actual official high and low records may vary slightly from our data, if they occured in-between our weather recording intervals... More about our weather records

Advertising

Port St. Lucie weather history for previous 24 hours

 ConditionsComfort  
Time TempWeatherWind HumidityBarometerVisibility
2:35 AM
Fri, Mar 27
70 °FClear.5 mph94%29.93 "Hg10 mi
2:15 AM70 °FClear.5 mph94%29.93 "Hg10 mi
1:55 AM70 °FClear.5 mph94%29.94 "Hg10 mi
1:35 AM70 °FClear.5 mph94%29.94 "Hg10 mi
1:15 AM70 °FClear.6 mph94%29.94 "Hg10 mi
12:55 AM70 °FClear.5 mph94%29.95 "Hg10 mi
12:35 AM70 °FClear.6 mph94%29.95 "Hg10 mi
11:55 PM
Thu, Mar 26
72 °FClear.5 mph88%29.96 "Hg10 mi
11:15 PM72 °FClear.No wind88%29.96 "Hg10 mi
10:55 PM72 °FClear.6 mph88%29.96 "Hg10 mi
10:35 PM72 °FPassing clouds.5 mph88%29.96 "Hg10 mi
10:15 PM70 °FPassing clouds.No wind94%29.96 "Hg10 mi
9:55 PM70 °FPassing clouds.No wind94%29.96 "Hg10 mi
9:35 PM70 °FClear.5 mph94%29.95 "Hg10 mi
9:15 PM72 °FClear.No wind88%29.94 "Hg7 mi
8:55 PM72 °FClear.No wind88%29.94 "Hg7 mi
8:35 PM72 °FPartly cloudy.3 mph88%29.94 "Hg7 mi
8:15 PM72 °FMostly cloudy.7 mph88%29.94 "Hg7 mi
7:55 PM72 °FThundershowers. Broken clouds.6 mph88%29.94 "Hg10 mi
7:35 PM72 °FBroken clouds.3 mph88%29.94 "Hg10 mi
7:15 PM70 °FBroken clouds.6 mph94%29.93 "Hg10 mi
6:47 PM72 °FThundershowers. Broken clouds.10 mph88%29.94 "Hg7 mi
4:47 PM73 °FStrong thunderstorms. Partly sunny.18 mph83%29.92 "Hg2 mi
2:47 PM84 °FBroken clouds.18 mph62%29.97 "Hg6 mi
1:50 PM86 °FBroken clouds.13 mph52%30.00 "Hg6 mi
12:47 PM82 °FBroken clouds.14 mph58%30.04 "Hg6 mi
11:47 AM79 °FBroken clouds.9 mph70%30.06 "Hg7 mi
10:47 AM77 °FBroken clouds.9 mph74%30.09 "Hg10 mi
9:55 AM75 °FPartly sunny.5 mph78%30.09 "Hg10 mi
8:50 AM73 °FPartly sunny.5 mph83%30.08 "Hg10 mi
7:50 AM72 °FPassing clouds.5 mph83%30.06 "Hg10 mi
6:50 AM72 °FPassing clouds.3 mph83%30.04 "Hg10 mi
6:15 AM72 °FClear.6 mph83%30.03 "Hg10 mi
5:55 AM70 °FClear.5 mph83%30.03 "Hg10 mi
5:35 AM72 °FClear.No wind83%30.03 "Hg10 mi
5:15 AM70 °FClear.6 mph88%30.02 "Hg10 mi
4:55 AM70 °FClear.3 mph88%30.02 "Hg10 mi
4:35 AM70 °FClear.3 mph88%30.03 "Hg10 mi
4:15 AM70 °FClear.3 mph88%30.03 "Hg10 mi
3:55 AM70 °FPassing clouds.3 mph94%30.04 "Hg10 mi
3:35 AM72 °FOvercast.No wind88%30.04 "Hg10 mi
3:15 AM70 °FOvercast.No wind94%30.05 "Hg10 mi
Weather by CustomWeather, © 2015

See weather overviewHow to use our weather pages